www.pogodaiklimat.ru

Погода и климат >> Архив погоды >> Кувейт >> Minagish


ПОГОДА в Minagish

  • Прогноз погоды в Minagish
  • Монитор погоды в Minagish
  • Климат города

АРХИВ ПОГОДЫ в Minagish

Время (UTC), дата Ветер
(напр.,м/с)
 
Видим.   Явления Облачность Т
(С)
Тd
(С)
f
(%)
Тe
(С)
Тes
(С)
Комфортность P
(гПа)
Po
(гПа)
Тmin
(С)
Tmax
(С)
R
(мм)
R24
(мм)
S
(см)
00 12.12 СЗ 4-5
{6}
11 км н/о +6.1 -6.5 40 +3 +3 1023.6 1024.0
03 12.12 СЗ 4-5
{6}
10 км н/о +5.6 -4.4 49 +3 +3 1024.4 1024.0
06 12.12 СЗ 12-15
{15}
5000 м дымка н/о +12.4 -4.4 31 +9 +9 1024.4 1024.0
09 12.12 СЗ 14-17
{17}
700 м мгла {туман, дымка} н/о +18.6 -8.4 15 +17 +17 1021.6 1022.0
12 12.12 СЗ 12-16
{17}
3900 м дым {туман} н/о +19.3 -7.6 15 +18 +18 1020.6 1021.0
15 12.12 СЗ 5-6
{16}
8000 м дым н/о +13.9 -5.3 26 +13 +13 1021.6 1022.0
18 12.12 СЗ 7-8
{16}
7000 м дым н/о +10.9 -3.6 36 +8 +8 1022.9 1023.0
21 12.12 СЗ 7-8
{8}
9000 м дым н/о +8.8 -3.5 42 +5 +5 1022.1 1022.0 +5.3 +19.9
00 13.12 З 6-8
{9}
10 км н/о +7.3 -3.8 45 +4 +4 1021.7 1022.0
03 13.12 З 6-7
{8}
11 км н/о +5.8 -5.4 44 +2 +2 1021.8 1022.0
06 13.12 СЗ 8-9
{9}
9000 м дым н/о +12.1 -4.3 32 +9 +9 1022.3 1022.0
09 13.12 СЗ 6-9
{10}
10 км н/о +19.9 -5.2 18 +19 +19 1019.5 1020.0
12 13.12 СЗ 6-8
{12}
12 км н/о +20.7 -5.4 17 +20 +20 1017.6 1018.0
15 13.12 З 3-3
{9}
7000 м дым н/о +14.5 -5.6 24 +14 +14 1018.5 1019.0
18 13.12 СЗ 2-2
{9}
8000 м дым н/о +11.1 -5.2 31 +11 +11 1018.5 1019.0
21 13.12 ЮЗ 2-2
{2}
10 км н/о +9.2 -6.6 32 +9 +9 1018.0 1018.0 +5.6 +21.5
00 14.12 ЮЗ 4-4
{5}
12 км н/о +7.7 -7.8 32 +5 +5 1017.5 1018.0
03 14.12 ЮЗ 4-4
{5}
12 км н/о +6.8 -8.2 33 +4 +4 1017.8 1018.0
06 14.12 Ю 3-4
{5}
11 км н/о +13.3 -7.4 23 +13 +13 1018.4 1018.0
15 14.12 В 6-7
{11}
10 км н/о +15.6 -2.1 30 +14 +14 1015.0 1015.0
18 14.12 ЮВ 8-9
{11}
11 км н/о +13.3 +0.9 43 +11 +11 1014.4 1014.0
21 14.12 ЮВ 6-8
{10}
11 км н/о +12.6 -0.6 40 +11 +11 1013.8 1014.0 +5.8 +23.0
00 15.12 ЮЗ 2-3
{10}
10 км н/о +8.4 -5.1 38 +8 +8 1013.5 1014.0
03 15.12 З 5-6
{6}
10 км н/о +5.9 -6.3 41 +2 +2 1013.5 1014.0
06 15.12 З 8-10
{11}
7000 м дым н/о +10.0 -6.3 31 +7 +7 1015.0 1015.0
09 15.12 З 7-9
{10}
8000 м дым н/о +13.5 -1.8 35 +12 +12 1013.9 1014.0
12 15.12 СЗ 6-8
{10}
9000 м дым н/о +16.7 -5.1 22 +16 +16 1013.5 1014.0
15 15.12 ЮЗ 4-5
{8}
5000 м дымка н/о +13.2 +4.3 55 +12 +12 1014.7 1015.0
18 15.12 З 7-9
{9}
2400 м дымка н/о +13.4 +9.0 75 +11 +11 1015.7 1016.0
21 15.12 СЗ 7-9
{11}
5000 м дымка н/о +9.6 +5.4 75 +6 +6 1017.0 1017.0 +4.9 +17.1
00 16.12 СЗ 4-5
{11}
4300 м дымка н/о +7.0 +5.3 89 +4 +4 1017.8 1018.0
03 16.12 СЗ 6-8
{9}
3000 м дымка н/о +7.3 +7.3 100 +3 +3 1018.9 1019.0
06 16.12 СЗ 9-11
{11}
5000 м дымка н/о +11.6 +8.2 80 +8 +8 1020.6 1021.0
09 16.12 С 10-13
{14}
6000 м дымка н/о +17.5 +8.3 55 +16 +16 1018.9 1019.0
12 16.12 С 7-9
{14}
7000 м дымка н/о +19.0 +7.6 48 +19 +19 1018.0 1018.0
15 16.12 СВ 2-3
{10}
5000 м дымка н/о +15.3 +8.4 63 +16 +16 1019.7 1020.0
18 16.12 С 3-3
{10}
4200 м дымка н/о +12.7 +8.3 75 +12 +12 1021.8 1022.0
21 16.12 СЗ 3-3
{4}
4100 м дымка н/о +9.1 +6.2 82 +7 +7 1022.2 1022.0 +6.9 +19.3
00 17.12 СЗ 2-2
{4}
<100 м слаб. дождь {дымка} н/о +9.2 +9.2 100 +8 +8 1022.6 1023.0
03 17.12 СЗ 5-6
{7}
3100 м в посл. час туман {дождь} н/о +8.1 +8.1 100 +4 +4 1024.2 1024.0
06 17.12 С 5-6
{7}
5000 м дымка {дождь, туман} н/о +15.6 +10.3 71 +15 +15 1024.9 1025.0
09 17.12 С 4-6
{6}
7000 м дымка н/о +21.3 +9.2 46 +23 +23 комфорт 1022.8 1023.0
12 17.12 С 4-7
{8}
8000 м дымка н/о +22.0 +6.7 37 +23 +23 комфорт 1021.7 1022.0
15 17.12 С 4-4
{8}
6000 м дымка н/о +16.9 +4.6 44 +17 +17 1023.3 1023.0
18 17.12 СЗ 3-3
{8}
6000 м дымка н/о +12.9 +3.5 53 +12 +12 1024.0 1024.0
21 17.12 СЗ 3-4
{5}
6000 м дымка н/о +11.4 +3.2 57 +10 +10 1024.8 1025.0 +7.8 +22.3
00 18.12 СЗ 3-4
{5}
6000 м дымка н/о +9.9 +2.6 60 +8 +8 1025.2 1025.0
03 18.12 СЗ 3-4
{5}
6000 м дымка н/о +8.8 +1.6 61 +7 +7 1026.0 1026.0
06 18.12 СЗ 4-5
{5}
7000 м дымка н/о +14.7 +1.3 40 +14 +14 1027.1 1027.0
09 18.12 СЗ 6-9
{9}
8000 м дым н/о +20.9 -0.5 24 +21 +21 комфорт 1025.1 1025.0
12 18.12 СЗ 5-7
{10}
10 км н/о +21.8 -1.3 21 +21 +21 комфорт 1023.4 1023.0
15 18.12 СЗ 4-5
{8}
7000 м дымка н/о +15.9 -1.5 30 +15 +15 1025.3 1025.0
18 18.12 СЗ 3-3
{8}
6000 м дымка н/о +11.9 -1.3 40 +11 +11 1026.4 1026.0
21 18.12 З 3-4
{4}
8000 м дымка н/о +10.6 -1.3 43 +9 +9 1025.8 1026.0 +8.6 +22.3

 

Местоположение метеостанции Minagish (Кувейт): широта 29.07 долгота 47.53 высота над уровнем моря 189 м.

В архиве по умолчанию представлена погода в Minagish за последнюю неделю. Архивные данные за месяц целиком и за предыдущие месяцы, начиная с января 2011 года, Вы можете получить, выбрав интересующий диапазон дат из раскрывающегося списка и нажав кнопку "Ввод!".

Внимание! Время в таблицах - всемирное. Для получения местного времени необходимо прибавить поправку, которая в Minagish равна 3 ч.

Смотрите также архив погоды в соседних городах и на ближайших метеорологических станциях:

Погода в Sulaibiya (Кувейт) (29 км)
Погода в Jahra (Кувейт) (31 км)
Погода в Kuwait (Кувейт) (46 км)
Погода в Experimental Farm (Кувейт) (47 км)
Погода в Abraque Al Habari (Кувейт) (57 км)
Погода в Kuwait City (Кувейт) (58 км)
Погода в Jal Aliyah (Кувейт) (60 км)
Погода в Al-Shuaiba (Кувейт) (63 км)
Погода в Juluiah Port (Кувейт) (76 км)
Погода в Al-Wafra (Кувейт) (77 км)

Пояснения к столбцам:

Ветер - указаны скорость ветра в м/с - средняя за 10 мин, порывы в срок и между сроками (в фигурных скобках) и направление, откуда дует ветер: С - северный, СВ - северо-восточный, В - восточный, ЮВ - юго-восточный, Ю - южный, ЮЗ - юго-западный, З - западный, СЗ - северо-западный.
Видимость - горизонтальная дальность видимости в метрах или километрах. При видимости от 1 до 10 км при отсутствии осадков обычно наблюдается дымка, при ухудшении видимости до 1 км и менее - туман. В сухую погоду видимость может ухудшаться дымом, пылью или мглою.
Явления - указаны атмосферные явления, наблюдавшиеся в срок или в последний час перед сроком; фигурными скобками обозначены явления, наблюдавшиеся между сроками (за 1-3 часа до срока); квадратными скобками обозначены град или гололедные отложения с указанием их диаметра в мм.
Облачность - указаны через наклонную черту общая и нижняя облачность в баллах и высота нижней границы облаков в метрах; квадратными скобками обозначены формы облаков: Ci - перистые, Cs - перисто-слоистые, Cc - перисто-кучевые, Ac - высококучевые, As - высокослоистые, Sc - слоисто-кучевые, Ns - слоисто-дождевые, Cu - кучевые, Cb - кучево-дождевые. Подробнее классификацию облаков см. в Атласе облаков (PDF).
T - Температура воздуха - температура, измеренная на высоте 2 м над землей.
Td - Температура точки росы - температура, при понижении до которой содержащийся в воздухе водяной пар достигнет насыщения.
f - Относительная влажность воздуха - влажноcть воздуха, измеренная на высоте 2 м над землей.
Te - Эффективная температура - температура, которую ощущает одетый по сезону человек в тени. Характеристика душности погоды. При расчете учитывается влияние влажности воздуха и скорости ветра на теплоощущения человека.
Tes - Эффективная температура на солнце - температура, которую ощущает человек, с поправкой на солнечный нагрев. Характеристика знойности погоды. Зависит от высоты солнца над горизонтом, облачности и скорости ветра. Ночью, в пасмурную погоду, а также при ветре 12 м/с и более поправка равна нулю.
P - Атмосферное давление - приведенное к уровню моря атмосферное давление.
Po - Атмосферное давление - измеренное на уровне метеостанции атмосферное давление.
Tmin - Минимальная температура - минимум температуры воздуха на высоте 2 м над землей.
Tmax - Максимальная температура - максимум температуры воздуха на высоте 2 м над землей.
R - Количество осадков - Количество выпавших осадков за период времени, мм. При наведении курсора мыши на число - период времени, за который выпало указанное количество осадков.
R24 - Количество осадков - Количество выпавших осадков за 24 часа, мм.
S - Снежный покров - Высота снежного покрова, см. При наведении курсора мыши на число - состояние снежного покрова и степень покрытия местности в баллах.